Stündliche Wetter Abay

Heute, 28 Februar, Sonntag

Zeit Temperatur Niederschläge Wind Luftdruck Luftfeuchtigkeit
00:00 -3°C° 0 mm 2 m/S 724 mmHg 53%
01:00 -3°C° 0 mm 2 m/S 724 mmHg 51%
02:00 -3°C° 0 mm 2 m/S 723 mmHg 48%
03:00 -3°C° 0 mm 2 m/S 723 mmHg 47%
04:00 -3°C° 0 mm 2 m/S 723 mmHg 45%
05:00 -1°C° 0 mm 1 m/S 723 mmHg 43%
06:00 0°C° 0 mm 1 m/S 723 mmHg 41%
07:00 0°C° 0 mm 1 m/S 723 mmHg 38%
08:00 -1°C° 0 mm 2 m/S 723 mmHg 36%
09:00 +3°C° 0 mm 1 m/S 722 mmHg 32%
10:00 +5°C° 0 mm 1 m/S 722 mmHg 28%
11:00 +7°C° 0 mm 1 m/S 722 mmHg 24%
12:00 +8°C° 0 mm 1 m/S 721 mmHg 23%
13:00 +8°C° 0 mm 1 m/S 721 mmHg 23%
14:00 +9°C° 0 mm 1 m/S 720 mmHg 22%
15:00 +9°C° 0 mm 1 m/S 720 mmHg 25%
16:00 +9°C° 0 mm 1 m/S 720 mmHg 27%
17:00 +8°C° 0 mm 1 m/S 719 mmHg 31%
18:00 +7°C° 0 mm 1 m/S 719 mmHg 36%
19:00 +5°C° 0 mm 1 m/S 719 mmHg 41%
20:00 +4°C° 0 mm 1 m/S 719 mmHg 47%
21:00 +4°C° 0 mm 1 m/S 719 mmHg 46%
22:00 +3°C° 0 mm 1 m/S 719 mmHg 45%
23:00 +3°C° 0 mm 1 m/S 719 mmHg 45%

Morgen, 1 März, Montag

Zeit Temperatur Niederschläge Wind Luftdruck Luftfeuchtigkeit
00:00 +3°C° 0 mm 1 m/S 718 mmHg 44%
01:00 +3°C° 0 mm 1 m/S 718 mmHg 43%
02:00 +3°C° 0 mm 1 m/S 718 mmHg 42%
03:00 +3°C° 0 mm 1 m/S 718 mmHg 41%
04:00 +3°C° 0 mm 1 m/S 718 mmHg 41%
05:00 +2°C° 0 mm 1 m/S 718 mmHg 41%
06:00 +3°C° 0 mm 1 m/S 718 mmHg 40%
07:00 +4°C° 0 mm 1 m/S 719 mmHg 39%
08:00 +5°C° 0 mm 1 m/S 719 mmHg 38%
09:00 +7°C° 0 mm 1 m/S 719 mmHg 34%
10:00 +8°C° 0 mm 0 m/S 719 mmHg 29%
11:00 +10°C° 0 mm 0 m/S 719 mmHg 24%
12:00 +11°C° 0 mm 0 m/S 719 mmHg 23%
13:00 +13°C° 0 mm 1 m/S 719 mmHg 22%
14:00 +14°C° 0 mm 1 m/S 719 mmHg 21%
15:00 +14°C° 0 mm 1 m/S 719 mmHg 23%
16:00 +13°C° 0 mm 1 m/S 719 mmHg 26%
17:00 +13°C° 0 mm 1 m/S 719 mmHg 28%
18:00 +10°C° 0 mm 2 m/S 719 mmHg 32%
19:00 +9°C° 0 mm 2 m/S 719 mmHg 36%
20:00 +7°C° 0 mm 2 m/S 719 mmHg 41%
21:00 +7°C° 0 mm 2 m/S 719 mmHg 41%
22:00 +7°C° 0 mm 2 m/S 719 mmHg 41%
23:00 +6°C° 0 mm 2 m/S 719 mmHg 41%

übermorgen, 2 März, Dienstag

Zeit Temperatur Niederschläge Wind Luftdruck Luftfeuchtigkeit
00:00 +6°C° 0 mm 2 m/S 719 mmHg 39%
01:00 +5°C° 0 mm 3 m/S 718 mmHg 37%
02:00 +5°C° 0 mm 3 m/S 718 mmHg 35%
03:00 +5°C° 0 mm 3 m/S 718 mmHg 34%
04:00 +4°C° 0 mm 3 m/S 718 mmHg 34%
05:00 +4°C° 0 mm 3 m/S 718 mmHg 33%
06:00 +5°C° 0 mm 2 m/S 718 mmHg 35%
07:00 +6°C° 0 mm 2 m/S 719 mmHg 36%
08:00 +6°C° 0 mm 2 m/S 719 mmHg 38%
09:00 +8°C° 0 mm 3 m/S 719 mmHg 36%
10:00 +9°C° 0 mm 5 m/S 720 mmHg 33%
11:00 +11°C° 0 mm 6 m/S 720 mmHg 31%
12:00 +11°C° 0 mm 7 m/S 720 mmHg 31%
13:00 +12°C° 0 mm 7 m/S 720 mmHg 30%
14:00 +12°C° 0 mm 8 m/S 719 mmHg 30%
15:00 +11°C° 0 mm 7 m/S 719 mmHg 34%
16:00 +10°C° 0 mm 6 m/S 719 mmHg 37%
17:00 +10°C° 0 mm 6 m/S 719 mmHg 40%
18:00 +8°C° 0 mm 5 m/S 720 mmHg 45%
19:00 +8°C° 0 mm 3 m/S 720 mmHg 50%
20:00 +6°C° 0 mm 2 m/S 721 mmHg 54%
21:00 +5°C° 0 mm 2 m/S 721 mmHg 59%
22:00 +4°C° 0 mm 2 m/S 721 mmHg 64%
23:00 +3°C° 0 mm 2 m/S 721 mmHg 69%

3 März, Mittwoch

Zeit Temperatur Niederschläge Wind Luftdruck Luftfeuchtigkeit
00:00 +3°C° 0 mm 2 m/S 721 mmHg 74%
01:00 +3°C° 0 mm 2 m/S 721 mmHg 78%
02:00 +2°C° 0 mm 2 m/S 721 mmHg 83%
03:00 +2°C° 0.2 mm 2 m/S 721 mmHg 87%
04:00 +3°C° 0.2 mm 1 m/S 721 mmHg 91%
05:00 +2°C° 0.2 mm 0 m/S 721 mmHg 96%
06:00 +1°C° 0.7 mm 0 m/S 721 mmHg 96%
07:00 +2°C° 0.7 mm 1 m/S 721 mmHg 96%
08:00 +2°C° 0.7 mm 1 m/S 721 mmHg 96%
09:00 +2°C° 0.5 mm 1 m/S 721 mmHg 96%
10:00 +2°C° 0.5 mm 1 m/S 721 mmHg 96%
11:00 +1°C° 0.5 mm 2 m/S 721 mmHg 96%
12:00 +3°C° 0.2 mm 1 m/S 721 mmHg 95%
13:00 +3°C° 0.2 mm 1 m/S 720 mmHg 95%
14:00 +3°C° 0.2 mm 1 m/S 720 mmHg 95%
15:00 +2°C° 0 mm 2 m/S 720 mmHg 94%
16:00 +3°C° 0 mm 2 m/S 720 mmHg 94%
17:00 +3°C° 0 mm 2 m/S 720 mmHg 93%
18:00 +3°C° 0 mm 2 m/S 720 mmHg 93%
19:00 +3°C° 0 mm 2 m/S 720 mmHg 94%
20:00 +3°C° 0 mm 2 m/S 720 mmHg 94%
21:00 +2°C° 0 mm 2 m/S 719 mmHg 94%
22:00 +3°C° 0 mm 1 m/S 719 mmHg 94%
23:00 +3°C° 0 mm 1 m/S 719 mmHg 93%

4 März, Donnerstag

Zeit Temperatur Niederschläge Wind Luftdruck Luftfeuchtigkeit
00:00 +2°C° 0 mm 1 m/S 719 mmHg 93%
01:00 +2°C° 0 mm 1 m/S 718 mmHg 93%
02:00 +2°C° 0 mm 1 m/S 718 mmHg 92%
03:00 +2°C° 0 mm 1 m/S 718 mmHg 91%
04:00 +2°C° 0 mm 1 m/S 718 mmHg 90%
05:00 +2°C° 0 mm 1 m/S 718 mmHg 89%
06:00 +2°C° 0 mm 1 m/S 718 mmHg 85%
07:00 +3°C° 0 mm 1 m/S 718 mmHg 82%
08:00 +3°C° 0 mm 2 m/S 718 mmHg 78%
09:00 +6°C° 0 mm 1 m/S 718 mmHg 68%
10:00 +8°C° 0 mm 1 m/S 718 mmHg 59%
11:00 +11°C° 0 mm 1 m/S 717 mmHg 49%
12:00 +12°C° 0 mm 1 m/S 717 mmHg 45%
13:00 +13°C° 0 mm 1 m/S 716 mmHg 42%
14:00 +14°C° 0 mm 1 m/S 716 mmHg 38%
15:00 +14°C° 0 mm 1 m/S 716 mmHg 42%
16:00 +13°C° 0 mm 1 m/S 716 mmHg 46%
17:00 +13°C° 0 mm 1 m/S 716 mmHg 50%
18:00 +12°C° 0.2 mm 2 m/S 716 mmHg 54%
19:00 +10°C° 0.2 mm 2 m/S 717 mmHg 58%
20:00 +9°C° 0.2 mm 3 m/S 717 mmHg 61%
21:00 +9°C° 0 mm 3 m/S 717 mmHg 62%
22:00 +8°C° 0 mm 3 m/S 717 mmHg 63%
23:00 +8°C° 0 mm 2 m/S 717 mmHg 64%

5 März, Freitag

Zeit Temperatur Niederschläge Wind Luftdruck Luftfeuchtigkeit
00:00 +5°C° 1.3 mm 4 m/S 718 mmHg 74%
01:00 +3°C° 1.3 mm 6 m/S 718 mmHg 84%
02:00 0°C° 1.3 mm 8 m/S 718 mmHg 93%
03:00 0°C° 1.5 mm 7 m/S 719 mmHg 93%
04:00 -1°C° 1.5 mm 6 m/S 720 mmHg 94%
05:00 -1°C° 1.5 mm 5 m/S 721 mmHg 94%
06:00 -1°C° 0.7 mm 4 m/S 722 mmHg 93%
07:00 0°C° 0.7 mm 4 m/S 723 mmHg 92%
08:00 +1°C° 0.7 mm 3 m/S 724 mmHg 91%
09:00 +1°C° 0.1 mm 3 m/S 724 mmHg 88%
10:00 +2°C° 0.1 mm 2 m/S 724 mmHg 86%
11:00 +2°C° 0.1 mm 2 m/S 724 mmHg 84%
12:00 +3°C° 0 mm 2 m/S 724 mmHg 80%
13:00 +3°C° 0 mm 2 m/S 724 mmHg 77%
14:00 +4°C° 0 mm 2 m/S 724 mmHg 73%
15:00 +3°C° 0 mm 3 m/S 724 mmHg 74%
16:00 +3°C° 0 mm 4 m/S 724 mmHg 75%
17:00 +1°C° 0 mm 4 m/S 723 mmHg 76%
18:00 +1°C° 0 mm 4 m/S 723 mmHg 79%
19:00 0°C° 0 mm 4 m/S 723 mmHg 83%
20:00 0°C° 0 mm 3 m/S 723 mmHg 86%
21:00 0°C° 0 mm 3 m/S 722 mmHg 87%
22:00 -1°C° 0 mm 3 m/S 722 mmHg 87%
23:00 -1°C° 0 mm 3 m/S 721 mmHg 88%
Mehr zeigen

Wir brauchen deine Erlaubnis

Meteoprog und unser Service Anbieter werden persönliche Daten aufbewahren, so wie Cookies, Geräte Bezeichnung oder ähnliche Technologien von deinem Gerät und Prozess, so wie Persönliche Daten Inhalte und Werbungen, genauso wie social Media und den Verkehr zu analysieren.

  • Aufbewahrung und/oder Zugang zu deiner Geräte Informationen.

    Cookies, Geräte Bezeichnung oder andere Informationen, können aufbewahrt oder Zugang zu deinem Gerät erhalten, für den Grund, der oben angegeben wird.

  • Personalisierte Werbung und Inhalte, Messungen, Einblick in das Publikum und Produkt Entwicklung.

    Werbungen und Inhalte können personalisiert werden, basierend auf ein Profil. Mehr Daten können besser personalisierte Werbungen und Inhalte hinzufügen. Werbung und Inhalte können gezeigt und gemessen werden. Einblicke über das Publikum, welche die Werbung gesehen haben und den Inhalt, können abgeleitet werden. So wie Daten können genutzt werden, um es zu verbessern oder die Benutzer Erfahrung zu verbessern das System und die Software.

Wenn du “Ich stimme zu” klickst, erlaubst du uns, die Cookies zu benutzen die Geräte Bezeichnung, den Web oder ähnliche Technologien zu benutzen. Deine Settings, können in deinem Gerät bei deinem Browser geändert werden.

Für den bestimmten Zweck, berechtigten Interessen beruhen darauf, mehr als auf den Inhalt. Du kannst mehr darüber in unseren Privaten und Cookie Politik lesen.